EW6800 Weather Reports


time (UTC)temp
C
wind
direction
speed
KPH
gust
KPH
rain 1hr
cm
rain 24hr
cm
rain mn
cm
humidity
%
barometer
mb
20260831152043 10 315 3.2 8.0 0.00 0.00 0.00 96 1014.4
20260831151553 10 315 3.2 11.3 0.00 0.00 0.00 96 1014.4
20260831151043 10 320 3.2 12.9 0.00 0.00 0.00 95 1014.4
20260831150543 10 324 6.4 12.9 0.00 0.00 0.00 96 1014.4
20260831150049 10 321 4.8 11.3 0.00 0.00 0.00 96 1014.3
20260831145543 10 311 4.8 9.7 0.00 0.00 0.00 96 1014.3
20260831145043 10 309 3.2 11.3 0.00 0.00 0.00 96 1014.0
20260831144551 10 321 4.8 11.3 0.00 0.00 0.00 96 1014.0
20260831144044 10 326 3.2 14.5 0.00 0.00 0.00 96 1014.0
20260831143543 10 318 6.4 14.5 0.00 0.00 0.00 95 1014.0
20260831143102 10 315 4.8 14.5 0.00 0.00 0.00 95 1014.0
20260831142546 10 319 4.8 11.3 0.00 0.00 0.00 96 1013.8
20260831142043 10 302 4.8 11.3 0.00 0.00 0.00 95 1013.7
20260831141557 10 312 3.2 12.9 0.00 0.00 0.00 95 1013.7
20260831141043 10 312 4.8 12.9 0.00 0.00 0.00 95 1013.7
20260831140543 10 300 4.8 12.9 0.00 0.00 0.00 95 1013.6
20260831140054 10 315 4.8 12.9 0.00 0.00 0.00 95 1013.7
20260831135544 10 316 4.8 12.9 0.00 0.00 0.00 95 1013.6
20260831135044 10 317 4.8 12.9 0.00 0.00 0.00 95 1013.5
20260831134604 10 309 6.4 12.9 0.00 0.00 0.00 95 1013.6
20260831134043 10 322 4.8 12.9 0.00 0.00 0.00 95 1013.5
20260831133543 10 314 6.4 14.5 0.00 0.00 0.00 95 1013.4
20260831133059 10 321 6.4 14.5 0.00 0.00 0.00 95 1013.4
20260831132543 10 321 6.4 16.1 0.00 0.00 0.00 95 1013.4
20260831132047 10 308 8.0 16.1 0.00 0.00 0.00 95 1013.3
20260831131600 9 302 8.0 14.5 0.00 0.00 0.00 95 1013.4
20260831131044 9 330 8.0 12.9 0.00 0.00 0.00 95 1013.4
20260831130544 9 313 6.4 12.9 0.00 0.00 0.00 95 1013.4
20260831130058 9 296 4.8 12.9 0.00 0.00 0.00 95 1013.4
20260831125544 9 308 6.4 12.9 0.00 0.00 0.00 95 1013.5
20260831125043 9 314 4.8 12.9 0.00 0.00 0.00 95 1013.6
20260831124603 9 315 4.8 12.9 0.00 0.00 0.00 95 1013.6
20260831124044 9 307 6.4 12.9 0.00 0.00 0.00 95 1013.5
20260831123544 9 308 4.8 12.9 0.00 0.00 0.00 95 1013.5
20260831123100 9 315 6.4 12.9 0.00 0.00 0.00 95 1013.5
20260831122543 9 310 6.4 12.9 0.00 0.00 0.00 95 1013.5
20260831122044 9 304 4.8 12.9 0.00 0.00 0.00 95 1013.4
20260831121558 9 317 4.8 11.3 0.00 0.00 0.00 95 1013.3
20260831121043 9 314 4.8 11.3 0.00 0.00 0.00 95 1013.3
20260831120542 9 316 6.4 12.9 0.00 0.00 0.00 95 1013.3
20260831120056 9 309 6.4 12.9 0.00 0.00 0.00 95 1013.2
20260831115543 9 305 4.8 11.3 0.00 0.00 0.00 95 1013.3
20260831115043 8 306 6.4 14.5 0.00 0.00 0.00 95 1013.4
20260831114600 9 309 8.0 14.5 0.00 0.00 0.00 95 1013.3
20260831114047 9 299 4.8 11.3 0.00 0.00 0.00 95 1013.3
20260831113544 9 313 3.2 8.0 0.00 0.00 0.00 95 1013.4
20260831113114 9 308 4.8 8.0 0.00 0.00 0.00 95 1013.3
20260831112546 9 311 3.2 6.4 0.00 0.00 0.00 95 1013.4
20260831112044 9 313 3.2 6.4 0.00 0.00 0.00 95 1013.4
20260831111551 9 312 3.2 9.7 0.00 0.00 0.00 95 1013.4
20260831111043 9 317 3.2 9.7 0.00 0.00 0.00 95 1013.5
20260831110547 9 322 3.2 9.7 0.00 0.00 0.00 95 1013.4
20260831110100 9 311 4.8 9.7 0.00 0.00 0.00 95 1013.4
20260831105544 8 304 3.2 8.0 0.00 0.00 0.00 95 1013.3
20260831105044 8 304 3.2 8.0 0.00 0.00 0.00 94 1013.3
20260831104601 8 316 4.8 8.0 0.00 0.00 0.00 94 1013.3
20260831104043 8 311 4.8 8.0 0.00 0.00 0.00 94 1013.3
20260831103546 8 306 4.8 8.0 0.00 0.00 0.00 94 1013.3
20260831103058 8 310 3.2 6.4 0.00 0.00 0.00 94 1013.2
20260831102546 8 312 3.2 6.4 0.00 0.00 0.00 94 1013.2
20260831102044 8 302 1.6 4.8 0.00 0.00 0.00 94 1013.2
20260831101555 8 294 0.0 1.6 0.00 0.00 0.00 94 1013.2
20260831101045 8 0 0.0 3.2 0.00 0.00 0.00 94 1013.1
20260831100549 8 294 0.0 4.8 0.00 0.00 0.00 94 1013.1
20260831100216 8 294 0.0 4.8 0.00 0.00 0.00 94 1013.1
20260831095543 8 294 1.6 4.8 0.00 0.00 0.00 94 1013.2
20260831095044 8 294 1.6 3.2 0.00 0.00 0.00 94 1013.2
20260831094614 8 254 1.6 3.2 0.00 0.00 0.00 94 1013.1
20260831094044 8 0 0.0 0.0 0.00 0.00 0.00 94 1013.0
20260831093544 8 0 0.0 1.6 0.00 0.00 0.00 94 1013.0
20260831093057 8 0 0.0 4.8 0.00 0.00 0.00 93 1013.1
20260831092545 8 0 0.0 4.8 0.00 0.00 0.00 93 1013.1
20260831092045 8 244 1.6 4.8 0.00 0.00 0.00 93 1013.2
20260831091552 8 154 1.6 3.2 0.00 0.00 0.00 93 1013.2
20260831091048 8 145 1.6 4.8 0.00 0.00 0.00 93 1013.2
20260831090546 9 144 1.6 4.8 0.00 0.00 0.00 92 1013.2
20260831090107 9 0 0.0 0.0 0.00 0.00 0.00 93 1013.2
20260831085544 9 0 0.0 0.0 0.00 0.00 0.00 93 1013.2
20260831085044 9 0 0.0 0.0 0.00 0.00 0.00 92 1013.3
20260831084602 9 0 0.0 0.0 0.00 0.00 0.00 92 1013.4
20260831084043 9 0 0.0 1.6 0.00 0.00 0.00 92 1013.4
20260831083543 9 0 0.0 3.2 0.00 0.00 0.00 91 1013.4
20260831083109 10 0 0.0 3.2 0.00 0.00 0.00 91 1013.4
20260831082544 10 144 0.0 1.6 0.00 0.00 0.00 90 1013.3
20260831082044 10 0 0.0 0.0 0.00 0.00 0.00 90 1013.3
20260831081609 10 0 0.0 0.0 0.00 0.00 0.00 90 1013.4
20260831081044 10 0 0.0 0.0 0.00 0.00 0.00 90 1013.4
20260831080544 11 0 0.0 0.0 0.00 0.00 0.00 89 1013.4
20260831080100 11 0 0.0 0.0 0.00 0.00 0.00 90 1013.4
20260831075543 11 0 0.0 0.0 0.00 0.00 0.00 89 1013.4
20260831075043 11 0 0.0 0.0 0.00 0.00 0.00 89 1013.5
20260831074557 11 0 0.0 0.0 0.00 0.00 0.00 89 1013.5
20260831074045 11 0 0.0 0.0 0.00 0.00 0.00 88 1013.5
20260831073543 11 0 0.0 1.6 0.00 0.00 0.00 87 1013.4
20260831073105 11 0 0.0 1.6 0.00 0.00 0.00 86 1013.4
20260831072543 12 0 0.0 1.6 0.00 0.00 0.00 86 1013.4
20260831072044 12 0 0.0 0.0 0.00 0.00 0.00 87 1013.3
20260831071602 12 0 0.0 0.0 0.00 0.00 0.00 88 1013.3
20260831071045 12 0 0.0 0.0 0.00 0.00 0.00 88 1013.3
20260831070544 12 0 0.0 0.0 0.00 0.00 0.00 88 1013.3
20260831065544 12 0 0.0 1.6 0.00 0.00 0.00 90 1013.3
20260831065044 12 0 0.0 1.6 0.00 0.00 0.00 90 1013.3
20260831064603 12 0 0.0 1.6 0.00 0.00 0.00 90 1013.3
20260831064047 12 0 0.0 3.2 0.00 0.00 0.00 90 1013.4
20260831063543 12 0 0.0 3.2 0.00 0.00 0.00 90 1013.4
20260831063059 12 0 1.6 3.2 0.00 0.00 0.00 90 1013.6
20260831062544 12 0 0.0 0.0 0.00 0.00 0.00 89 1013.6
20260831062044 12 0 0.0 0.0 0.00 0.00 0.00 89 1013.5
20260831061605 12 0 0.0 0.0 0.00 0.00 0.00 89 1013.6
20260831061046 12 0 0.0 1.6 0.00 0.00 0.00 88 1013.7
20260831060543 12 0 0.0 1.6 0.00 0.00 0.00 88 1013.7
20260831060059 12 0 0.0 4.8 0.00 0.00 0.00 88 1013.6
20260831055544 12 0 0.0 4.8 0.00 0.00 0.00 88 1013.6
20260831055044 12 144 3.2 4.8 0.00 0.00 0.00 87 1013.6
20260831054553 12 139 1.6 4.8 0.00 0.00 0.00 87 1013.6
20260831054044 12 0 1.6 4.8 0.00 0.00 0.00 86 1013.5
20260831053544 13 0 0.0 4.8 0.00 0.00 0.00 86 1013.5
20260831053102 13 131 1.6 4.8 0.00 0.00 0.00 85 1013.7
20260831052549 13 131 0.0 4.8 0.00 0.00 0.00 84 1013.7
20260831052044 13 0 0.0 6.4 0.00 0.00 0.00 84 1013.8
20260831051608 13 131 3.2 6.4 0.00 0.00 0.00 83 1013.7
20260831051043 13 124 3.2 4.8 0.00 0.00 0.00 83 1013.7
20260831050544 13 117 1.6 4.8 0.00 0.00 0.00 83 1013.7
20260831050059 13 117 1.6 4.8 0.00 0.00 0.00 83 1013.8
20260831045544 13 117 1.6 4.8 0.00 0.00 0.00 83 1013.8
20260831045044 14 0 3.2 4.8 0.00 0.00 0.00 83 1013.8
20260831044612 14 117 0.0 4.8 0.00 0.00 0.00 82 1013.8
20260831044045 14 0 0.0 4.8 0.00 0.00 0.00 82 1013.7
20260831043543 14 117 1.6 4.8 0.00 0.00 0.00 83 1013.8
20260831043059 14 0 0.0 3.2 0.00 0.00 0.00 82 1013.8
20260831042547 14 0 0.0 3.2 0.00 0.00 0.00 83 1013.8
20260831042047 13 0 0.0 3.2 0.00 0.00 0.00 83 1013.8
20260831041600 13 0 0.0 0.0 0.00 0.00 0.00 83 1013.7
20260831041043 13 0 0.0 0.0 0.00 0.00 0.00 84 1013.7
20260831040543 13 0 0.0 0.0 0.00 0.00 0.00 85 1013.7
20260831040109 13 0 0.0 0.0 0.00 0.00 0.00 85 1013.6
20260831035543 13 0 0.0 0.0 0.00 0.00 0.00 85 1013.6
20260831035043 13 0 0.0 0.0 0.00 0.00 0.00 86 1013.5
20260831034559 13 0 0.0 1.6 0.00 0.00 0.00 86 1013.5
20260831034043 13 0 0.0 1.6 0.00 0.00 0.00 86 1013.4
20260831033543 13 0 0.0 1.6 0.00 0.00 0.00 86 1013.5
20260831033100 13 0 0.0 1.6 0.00 0.00 0.00 86 1013.3
20260831032544 13 0 0.0 1.6 0.00 0.00 0.00 87 1013.3
20260831032048 13 0 0.0 1.6 0.00 0.00 0.00 87 1013.3
20260831031602 13 0 0.0 0.0 0.00 0.00 0.00 87 1013.3
20260831031043 13 0 0.0 0.0 0.00 0.00 0.00 87 1013.3
20260831030544 13 0 0.0 0.0 0.00 0.00 0.00 87 1013.3
20260831025544 13 0 0.0 3.2 0.00 0.00 0.00 85 1013.3
20260831025051 13 314 1.6 3.2 0.00 0.00 0.00 84 1013.3
20260831024601 13 0 0.0 3.2 0.00 0.00 0.00 84 1013.2
20260831024043 13 307 1.6 4.8 0.00 0.00 0.00 83 1013.2
20260831023547 14 306 1.6 4.8 0.00 0.00 0.00 82 1013.3
20260831023103 14 313 0.0 4.8 0.00 0.00 0.00 81 1013.3
20260831022543 15 311 0.0 3.2 0.00 0.00 0.00 81 1013.3
20260831022043 15 306 0.0 4.8 0.00 0.00 0.00 80 1013.3
20260831021551 15 0 0.0 4.8 0.00 0.00 0.00 79 1013.3
20260831021044 15 304 1.6 4.8 0.00 0.00 0.00 79 1013.2
20260831020547 15 300 1.6 6.4 0.00 0.00 0.00 78 1013.2
20260831015543 16 302 3.2 8.0 0.00 0.00 0.00 77 1013.3
20260831015043 16 305 3.2 6.4 0.00 0.00 0.00 76 1013.2
20260831014557 16 294 3.2 8.0 0.00 0.00 0.00 76 1013.2
20260831014043 16 302 3.2 8.0 0.00 0.00 0.00 75 1013.3
20260831013543 16 313 3.2 6.4 0.00 0.00 0.00 74 1013.3
20260831013108 17 313 3.2 8.0 0.00 0.00 0.00 73 1013.3
20260831012546 17 308 3.2 8.0 0.00 0.00 0.00 73 1013.3
20260831012046 17 305 3.2 8.0 0.00 0.00 0.00 72 1013.4
20260831011603 17 305 3.2 6.4 0.00 0.00 0.00 72 1013.4
20260831011048 17 304 1.6 6.4 0.00 0.00 0.00 71 1013.4
20260831010545 17 304 3.2 8.0 0.00 0.00 0.00 71 1013.5
20260831010058 18 303 4.8 9.7 0.00 0.00 0.00 70 1013.5
20260831005543 18 311 4.8 11.3 0.00 0.00 0.00 70 1013.5
20260831005044 18 303 4.8 11.3 0.00 0.00 0.00 69 1013.4
20260831004555 18 296 4.8 11.3 0.00 0.00 0.00 68 1013.5
20260831004044 18 296 4.8 11.3 0.00 0.00 0.00 67 1013.4
20260831003543 19 296 4.8 11.3 0.00 0.00 0.00 68 1013.4
20260831003104 19 306 6.4 11.3 0.00 0.00 0.00 67 1013.5
20260831002543 19 311 4.8 11.3 0.00 0.00 0.00 66 1013.5
20260831002045 19 298 4.8 11.3 0.00 0.00 0.00 66 1013.6
20260831001600 20 309 4.8 11.3 0.00 0.00 0.00 66 1013.6
20260831001043 20 301 4.8 11.3 0.00 0.00 0.00 65 1013.6
20260831000543 20 308 4.8 11.3 0.00 0.00 0.00 65 1013.7
20260831000106 20 302 4.8 11.3 0.00 0.00 0.00 66 1013.6
20260830235543 20 301 4.8 9.7 0.00 0.00 0.00 66 1013.6
20260830235046 20 298 4.8 11.3 0.00 0.00 0.00 65 1013.6
20260830234600 20 301 6.4 11.3 0.00 0.00 0.00 64 1013.7
20260830234043 20 304 4.8 8.0 0.00 0.00 0.00 64 1013.7
20260830233543 20 294 4.8 11.3 0.00 0.00 0.00 63 1013.6
20260830233103 20 302 4.8 11.3 0.00 0.00 0.00 63 1013.7
20260830232542 20 315 6.4 11.3 0.00 0.00 0.00 63 1013.6
20260830232046 20 304 4.8 11.3 0.00 0.00 0.00 63 1013.7
20260830231606 20 313 3.2 12.9 0.00 0.00 0.00 62 1013.8
20260830231045 21 300 6.4 12.9 0.00 0.00 0.00 62 1013.7
20260830230544 21 306 6.4 12.9 0.00 0.00 0.00 61 1013.7
20260830230052 21 315 8.0 12.9 0.00 0.00 0.00 61 1013.7
20260830225544 21 296 4.8 12.9 0.00 0.00 0.00 62 1013.8
20260830225046 21 304 6.4 12.9 0.00 0.00 0.00 61 1013.8
20260830224600 21 296 6.4 11.3 0.00 0.00 0.00 60 1013.9
20260830224044 21 317 6.4 11.3 0.00 0.00 0.00 60 1013.9
20260830223544 21 317 4.8 11.3 0.00 0.00 0.00 60 1013.9
20260830223110 21 312 4.8 11.3 0.00 0.00 0.00 60 1013.9
20260830222546 21 313 4.8 11.3 0.00 0.00 0.00 60 1014.0
20260830222044 21 302 4.8 11.3 0.00 0.00 0.00 61 1014.0
20260830221553 21 303 1.6 9.7 0.00 0.00 0.00 62 1014.0
20260830221044 21 303 4.8 11.3 0.00 0.00 0.00 61 1014.0
20260830220544 21 311 6.4 11.3 0.00 0.00 0.00 61 1014.0
20260830220050 21 299 4.8 12.9 0.00 0.00 0.00 61 1014.1
20260830215545 21 296 4.8 12.9 0.00 0.00 0.00 61 1014.3
20260830215045 21 292 4.8 12.9 0.00 0.00 0.00 61 1014.4
20260830214615 21 304 6.4 12.9 0.00 0.00 0.00 60 1014.4
20260830214045 21 297 6.4 12.9 0.00 0.00 0.00 60 1014.5
20260830213544 21 318 4.8 11.3 0.00 0.00 0.00 59 1014.6
20260830213102 21 310 4.8 11.3 0.00 0.00 0.00 58 1014.8
20260830212544 22 307 3.2 8.0 0.00 0.00 0.00 57 1014.7
20260830212045 22 311 3.2 8.0 0.00 0.00 0.00 56 1014.8
20260830211607 22 278 1.6 4.8 0.00 0.00 0.00 56 1015.0
20260830211045 22 296 3.2 8.0 0.00 0.00 0.00 56 1014.9
20260830210544 22 0 0.0 8.0 0.00 0.00 0.00 55 1014.9
20260830210117 23 15 0.0 3.2 0.00 0.00 0.00 55 1014.9
20260830205546 23 0 0.0 4.8 0.00 0.00 0.00 55 1015.0
20260830205046 22 0 0.0 6.4 0.00 0.00 0.00 57 1015.1
20260830204600 22 348 3.2 6.4 0.00 0.00 0.00 56 1014.9
20260830204044 22 0 0.0 4.8 0.00 0.00 0.00 56 1014.9
20260830203544 21 351 0.0 4.8 0.00 0.00 0.00 59 1015.0
20260830203053 21 0 0.0 8.0 0.00 0.00 0.00 59 1015.0
20260830202544 20 351 3.2 8.0 0.00 0.00 0.00 60 1015.0
20260830202044 20 330 1.6 6.4 0.00 0.00 0.00 62 1015.0
20260830201605 20 335 3.2 6.4 0.00 0.00 0.00 62 1015.0
20260830201044 20 327 1.6 6.4 0.00 0.00 0.00 62 1015.0
20260830200546 20 336 1.6 6.4 0.00 0.00 0.00 61 1015.1
20260830200104 20 0 0.0 6.4 0.00 0.00 0.00 63 1015.1
20260830195543 20 0 0.0 8.0 0.00 0.00 0.00 64 1015.1
20260830195045 20 323 1.6 8.0 0.00 0.00 0.00 65 1015.2
20260830194553 20 299 1.6 6.4 0.00 0.00 0.00 64 1015.2
20260830194043 19 305 1.6 4.8 0.00 0.00 0.00 65 1015.4
20260830193543 19 304 1.6 6.4 0.00 0.00 0.00 65 1015.3
20260830193050 19 338 0.0 8.0 0.00 0.00 0.00 65 1015.3
20260830192543 19 338 1.6 8.0 0.00 0.00 0.00 65 1015.4
20260830192043 18 296 1.6 4.8 0.00 0.00 0.00 67 1015.4
20260830191559 18 310 1.6 6.4 0.00 0.00 0.00 67 1015.5
20260830191043 18 309 1.6 6.4 0.00 0.00 0.00 66 1015.4
20260830190545 18 309 3.2 6.4 0.00 0.00 0.00 66 1015.4
20260830190126 18 311 1.6 8.0 0.00 0.00 0.00 66 1015.5
20260830185543 18 242 3.2 8.0 0.00 0.00 0.00 67 1015.4
20260830185045 17 322 1.6 4.8 0.00 0.00 0.00 68 1015.4
20260830184628 17 321 1.6 6.4 0.00 0.00 0.00 69 1015.5
20260830184043 17 318 1.6 8.0 0.00 0.00 0.00 69 1015.5
20260830183543 17 318 4.8 8.0 0.00 0.00 0.00 68 1015.5
20260830183114 17 327 1.6 8.0 0.00 0.00 0.00 67 1015.4
20260830182543 16 315 3.2 8.0 0.00 0.00 0.00 68 1015.4
20260830182042 16 322 3.2 8.0 0.00 0.00 0.00 67 1015.5
20260830181559 16 331 3.2 8.0 0.00 0.00 0.00 71 1015.4
20260830181044 16 294 1.6 8.0 0.00 0.00 0.00 71 1015.4
20260830180543 16 329 3.2 8.0 0.00 0.00 0.00 71 1015.4
20260830175543 15 319 1.6 6.4 0.00 0.00 0.00 74 1015.5
20260830175045 15 319 3.2 6.4 0.00 0.00 0.00 74 1015.5
20260830174603 15 317 3.2 6.4 0.00 0.00 0.00 75 1015.4
20260830174044 14 317 3.2 6.4 0.00 0.00 0.00 77 1015.5
20260830173544 14 318 3.2 6.4 0.00 0.00 0.00 79 1015.5
20260830173055 13 317 3.2 6.4 0.00 0.00 0.00 79 1015.5
20260830172543 13 317 3.2 8.0 0.00 0.00 0.00 79 1015.5
20260830172043 13 323 3.2 8.0 0.00 0.00 0.00 80 1015.4
20260830171559 13 309 3.2 6.4 0.00 0.00 0.00 82 1015.4
20260830171042 12 310 3.2 8.0 0.00 0.00 0.00 85 1015.4
20260830170543 12 310 3.2 8.0 0.00 0.00 0.00 85 1015.4
20260830170053 12 310 4.8 8.0 0.00 0.00 0.00 86 1015.3
20260830165545 12 313 4.8 8.0 0.00 0.00 0.00 87 1015.3
20260830165043 12 317 3.2 9.7 0.00 0.00 0.00 87 1015.3
20260830164604 11 311 3.2 14.5 0.00 0.00 0.00 87 1015.3
20260830164045 11 313 6.4 14.5 0.00 0.00 0.00 88 1015.2
20260830163543 11 311 4.8 12.9 0.00 0.00 0.00 89 1015.2
20260830163051 11 312 4.8 12.9 0.00 0.00 0.00 90 1015.2
20260830162542 11 317 4.8 12.9 0.00 0.00 0.00 90 1015.3
20260830162046 11 323 4.8 11.3 0.00 0.00 0.00 91 1015.3
20260830161552 11 323 3.2 8.0 0.00 0.00 0.00 93 1015.2
20260830161042 11 320 4.8 8.0 0.00 0.00 0.00 93 1015.3
20260830160542 10 316 3.2 8.0 0.00 0.00 0.00 94 1015.4
20260830155543 10 327 3.2 6.4 0.00 0.00 0.00 95 1015.3
20260830155043 10 317 3.2 8.0 0.00 0.00 0.00 95 1015.4
20260830154557 10 317 3.2 9.7 0.00 0.00 0.00 95 1015.4
20260830154045 10 319 4.8 9.7 0.00 0.00 0.00 95 1015.4
20260830153543 10 318 3.2 9.7 0.00 0.00 0.00 95 1015.4
20260830153113 10 309 4.8 9.7 0.00 0.00 0.00 95 1015.4
20260830152543 10 311 4.8 9.7 0.00 0.00 0.00 95 1015.5